Regional Weather Roundup
Issued by NWS Upton, NY

Current Version | Previous Version | Graphics & Text | Print | Product List | Glossary Off
Versions: 1 2 3 4 5 6 7 8 9 10 11 12 13 14 15 16 17 18 19 20 21 22 23 24 25 26 27 28 29 30 31 32 33 34 35 36 37 38 39 40 41 42 43 44 45 46 47 48 49 50

000
ASUS41 KOKX 261809
RWROKX

REGIONAL WEATHER ROUNDUP
NATIONAL WEATHER SERVICE NEW YORK NY
200 PM EDT MON JUN 26 2017

NOTE: "FAIR" INDICATES FEW OR NO CLOUDS BELOW 12,000 FEET WITH NO
SIGNIFICANT WEATHER AND/OR OBSTRUCTIONS TO VISIBILITY.

NYZ071-072-176-178-NJZ106-104-261900-
NEW YORK CITY METRO AREA

CITY           SKY/WX    TMP DP  RH WIND       PRES   REMARKS
Central Park   MOSUNNY   76  48  37 MISG      30.03F
Bronx Bot Gard   N/A     77  43  29 SW1       30.02R
LaGuardia APRT MOSUNNY   79  46  31 W10G18    30.00F
Kennedy INTL   MOSUNNY   73  55  53 S16       30.02F
Breezy Point     N/A     70 N/A N/A S13         N/A
Newark/Liberty MOSUNNY   77  48  35 SW9G20    30.00F
Teterboro      MOSUNNY   77  46  33 SW9       29.90F
$$

NYZ177-179-078>081-261900-
LONG ISLAND NEW YORK

CITY           SKY/WX    TMP DP  RH WIND       PRES   REMARKS
Jones Beach      N/A     72 N/A N/A S9G16       N/A
Matinecock PT  NOT AVBL
Farmingdale    NOT AVBL
MacArthur/ISP  NOT AVBL
Shirley        NOT AVBL
Mt Sinai Harb    N/A     77 N/A N/A W6          N/A
Westhampton    PTSUNNY   75  53  46 SW13G20   30.03S
East Hampton   FAIR      73  55  53 S13G18    30.01S
Montauk          N/A     74  57  55 VRB7      30.02F
$$

NYZ052-065-067-261900-
HUDSON VALLEY

CITY           SKY/WX    TMP DP  RH WIND       PRES   REMARKS
White Plains   MOSUNNY   77  48  36 VRB6      30.00F
Larchmont Harb   N/A     73 N/A N/A S6          N/A
Croton O-T Hud   N/A     75 N/A N/A SW1         N/A
Newburgh       MOSUNNY   77  52  41 W12G21    30.00F
Montgomery     MOSUNNY   76  48  37 W13G18    29.98
Poughkeepsie   NOT AVBL
Albany         PTSUNNY   73  55  53 VRB3      29.96F
$$

NJZ001-105-106-008-010-013-015-019>022-104-261900-
NEW JERSEY

CITY           SKY/WX    TMP DP  RH WIND       PRES   REMARKS
Newark/Liberty MOSUNNY   77  48  35 SW9G20    30.00F
Teterboro      MOSUNNY   77  46  33 SW9       29.90F
Caldwell       MOSUNNY   79  49  34 VRB5      30.01
Somerville     SUNNY     78  48  34 VRB6      30.00
Linden         FAIR      78  43  28 W8        30.01F
Perth Amboy      N/A     73 N/A N/A W12         N/A
Sussex         SUNNY     75  50  41 S5        30.00
Andover          N/A     73  49  42 SW6       30.01F
Trenton        MOSUNNY   78  48  34 SW13      30.02F
Millville      SUNNY     80  50  34 W10       30.03
Atlantic City  MOSUNNY   77  50  38 S10       30.03F
Wrightstown    PTSUNNY   79  49  35 W5        30.01F
Toms River     NOT AVBL
Belmar         NOT AVBL
$$

PAZ047>061-062-071-261900-
EASTERN PENNSYLVANIA

CITY           SKY/WX    TMP DP  RH WIND       PRES   REMARKS
Philadelphia   MOSUNNY   79  46  31 VRB5      30.03F
Allentown      NOT AVBL
Scranton       MOSUNNY   76  48  37 W15       30.01
$$

CTZ002-004>006-009-010-012-RIZ004-006-007-MAZ004-011-015-261900-
SOUTHERN NEW ENGLAND
 IN CT

CITY           SKY/WX    TMP DP  RH WIND       PRES   REMARKS
Bradley INTL   PTSUNNY   77  50  38 W8        29.97F
Hartford       MOSUNNY   79  50  36 VRB7G17   29.97F
Danbury        PTSUNNY   74  51  44 SW8       30.01F
Wtrbury/Oxford PTSUNNY   73  48  40 NW6G17    30.01F
Bridgeport     MOSUNNY   79  54  41 S15       29.99F
Meriden        MOSUNNY   77  51  40 NW8       29.98F
New Haven      MOSUNNY   74  56  53 SW12G18   29.99F
Chester        FAIR      73  54  49 S12       30.00S
Groton         MOSUNNY   71  56  58 SW15      29.99F
Wilimantic     MOSUNNY   77  50  38 VRB7G16   29.98F

 IN RI

CITY           SKY/WX    TMP DP  RH WIND       PRES   REMARKS
Providence     MOSUNNY   77  51  40 VRB7      29.98F
Block Island   SUNNY     71  58  63 SW16      30.02F
Westerly       SUNNY     77  53  43 SW12G18   30.00F
 IN MA

CITY           SKY/WX    TMP DP  RH WIND       PRES   REMARKS
Boston         MOSUNNY   78  50  37 W15G21    29.96F
Worcester      NOT AVBL
Westfield      PTSUNNY   76  50  40 NW9       29.98F
Provincetown   SUNNY     73  52  47 N6        29.98F
Nantucket      SUNNY     71  57  61 SW15      30.01R
$$

ANZ330-335-338-340-345-350-353-355-261900-
COASTAL MARINE OBSERVATIONS


STATION/POSITION TIME  SKY/WX   TEMP    WIND        PRES    VSBY  WAVE
                                AIR SEA DIR/SP/G                  HT/PER
                 (UTC)          (F)     (DEG/KT/KT) (MB)    (MI)  (FT/S)
NY HARB ENTRANCE 1650            69 69  190/ 10/ 12 1017.0          2/ 7
20 S FIRE ISLAND 1750            69 71  210/ 12/ 14 1016.6          2/ 8
GREAT SOUTH BAY  1715            70 76  220/ 14/ 16   N/A
23 SSW MONTAUK P 1750            67 67              1017.1          2/ 7
15 E BARNEGAT LI 1730               68                N/A           2/ 8
HUDSON CANYON    1750            69 71  270/  2/  4 1017.3          2/ 7
KINGS POINT      1724            74 65  280/  8/ 12 1016.0
EXECUTION ROCKS  1745            77     230/  6/ 10   N/A
CENTRAL LI SOUND NOT AVBL
EASTERN LI SOUND NOT AVBL
ROBBINS REEF     1730                   230/ 11/ 16 1016.8
$$


>>>>>>>>>>>>>>>>>>>>>>>>>>>> KEY <<<<<<<<<<<<<<<<<<<<<<<<<<<
>                                                          <
>     SKY/WX - Sky Condition/Present Weather               <
>     TMP    - Temperature in Fahrenheit                   <
>     DP     - Dew Point in Fahrenheit                     <
>     RH     - Relative Humidity in Percent                <
>     WIND   - Direction (from) and Speed in MPH           <
>     PRES   - Mean Sea Level Pressure (inches of Hg)      <
>     WCI    - Wind Chill Index                            <
>     VSB    - VISIBILITY IN MILES                         <
>     HX     - HEAT INDEX                                  <
>     TC     - TEMPERATURE IN CELSIUS                      <
>     VRB    - VARIABLE WIND DIRECTION                     <
>                                                          <
>>>>>>>>>>>>>>>>>>>>>>>>>>>> KEY <<<<<<<<<<<<<<<<<<<<<<<<<<<



USA.gov is the U.S. government's official web portal to all federal, state and local government web resources and services.